Alpine, TX

4:09 PM CST on November 11, 2019 (GMT -0600)
Alpine

Weather History for KE38 - October, 2019

Change the Weather History Date:

Tuesday, October 22, 2019

  Actual Average (WUND) Record (WUND)
Temperature  
Mean Temperature 56 °F -  
Max Temperature 76 °F - - (-1)
Min Temperature 36 °F - - (-1)
Degree Days  
Heating Degree Days 9    
Growing Degree Days 6 (Base 50)    
Moisture  
Dew Point 19 °F    
Average Humidity 26    
Maximum Humidity 51    
Minimum Humidity 10    
Precipitation  
Precipitation 0.00 in - - ()
Sea Level Pressure  
Sea Level Pressure 30.26 in    
Wind  
Wind Speed 4 mph ()    
Max Wind Speed 9 mph    
Max Gust Speed -    
Visibility 10.0 miles    
Events      
Averages and records for this station are not official NWS values.
T = Trace of Precipitation, MM = Missing Value Source: Averaged Metar Reports

Daily Weather History Graph

Daily Weather History Graph

Search for Another Location

Airport or City:

Astronomy

Oct. 22, 2019 Rise Set
Actual Time 8:01 AM CDT 7:16 PM CDT
Civil Twilight 7:37 AM CDT 7:40 PM CDT
Nautical Twilight 7:09 AM CDT 8:08 PM CDT
Astronomical Twilight 6:41 AM CDT 8:36 PM CDT
Moon 1:48 AM CDT (10/22) 3:55 PM CDT (10/22)
Length of Visible Light 12h 03m
Length of Day
11h 14m
Last Quarter, 37% of the Moon is Illuminated
Oct 22
Last Quarter
Oct 27
New
Nov 4
First Quarter
Nov 12
Full
Nov 19
Last Quarter

Hourly Weather History & Observations

Time (CDT) Temp. Windchill Dew Point Humidity Pressure Visibility Wind Dir Wind Speed Gust Speed Precip Events Conditions
12:15 AM 47.3 °F - 19.2 °F 33% 30.24 in 10.0 mi SSW 6.9 mph - N/A   Clear
12:35 AM 47.8 °F - 19.4 °F 32% 30.24 in 10.0 mi SSW 5.8 mph - N/A   Clear
12:55 AM 45.0 °F 40.1 °F 20.5 °F 38% 30.24 in 10.0 mi SSW 9.2 mph - N/A   Clear
1:15 AM 45.7 °F 42.0 °F 19.9 °F 36% 30.24 in 10.0 mi South 6.9 mph - N/A   Clear
1:35 AM 44.8 °F 41.0 °F 20.3 °F 38% 30.24 in 10.0 mi WSW 6.9 mph - N/A   Clear
1:55 AM 44.2 °F 41.8 °F 20.1 °F 38% 30.24 in 10.0 mi South 4.6 mph - N/A   Clear
2:15 AM 44.1 °F 40.1 °F 20.1 °F 39% 30.24 in 10.0 mi South 6.9 mph - N/A   Clear
2:35 AM 44.8 °F 41.6 °F 19.8 °F 37% 30.25 in 10.0 mi SSW 5.8 mph - N/A   Clear
2:55 AM 43.7 °F 40.3 °F 19.2 °F 38% 30.26 in 10.0 mi West 5.8 mph - N/A   Clear
3:10 AM 43.7 °F - 19.2 °F 38% 30.26 in 10.0 mi Calm Calm - N/A   Clear
3:35 AM 42.4 °F - 19.4 °F 40% 30.26 in 10.0 mi Calm Calm - N/A   Clear
3:55 AM 41.4 °F 37.6 °F 20.1 °F 43% 30.26 in 10.0 mi SW 5.8 mph - N/A   Clear
4:15 AM 41.9 °F 39.0 °F 19.8 °F 41% 30.26 in 10.0 mi SSW 4.6 mph - N/A   Clear
4:35 AM 42.1 °F 40.2 °F 19.0 °F 40% 30.25 in 10.0 mi SSE 3.5 mph - N/A   Clear
4:55 AM 53.4 °F - 14.5 °F 21% 30.26 in 10.0 mi NNE 4.6 mph - N/A   Clear
5:15 AM 45.1 °F 43.7 °F 17.2 °F 33% 30.27 in 10.0 mi SE 3.5 mph - N/A   Clear
5:35 AM 45.1 °F - 17.4 °F 33% 30.27 in 10.0 mi Calm Calm - N/A   Clear
5:55 AM 43.9 °F 42.3 °F 17.6 °F 35% 30.27 in 10.0 mi SSE 3.5 mph - N/A   Clear
6:15 AM 45.7 °F - 17.1 °F 32% 30.28 in 10.0 mi Calm Calm - N/A   Clear
6:35 AM 37.8 °F 35.3 °F 19.0 °F 47% 30.28 in 10.0 mi SSW 3.5 mph - N/A   Clear
6:55 AM 41.2 °F 38.2 °F 18.5 °F 40% 30.30 in 10.0 mi South 4.6 mph - N/A   Clear
7:15 AM 40.3 °F 35.5 °F 18.7 °F 42% 30.30 in 10.0 mi South 6.9 mph - N/A   Clear
7:35 AM 37.9 °F 33.5 °F 18.5 °F 46% 30.31 in 10.0 mi South 5.8 mph - N/A   Clear
7:55 AM - - - N/A% - - North - - N/A   Unknown
8:15 AM 36.0 °F 31.1 °F 19.4 °F 51% 30.32 in 7.0 mi SSW 5.8 mph - N/A   Clear
8:35 AM 39.9 °F 36.7 °F 20.1 °F 45% 30.32 in 10.0 mi WSW 4.6 mph - N/A   Clear
8:55 AM 45.7 °F 44.4 °F 21.7 °F 39% 30.32 in - SSW 3.5 mph - N/A   Clear
9:15 AM 50.4 °F - 22.3 °F 33% 30.33 in 10.0 mi Calm Calm - N/A   Clear
9:35 AM 55.6 °F - 17.1 °F 22% 30.34 in 10.0 mi Calm Calm - N/A   Clear
9:55 AM 58.3 °F - 15.3 °F 19% 30.34 in 10.0 mi Calm Calm - N/A   Clear
10:15 AM 59.9 °F - 14.4 °F 17% 30.35 in 10.0 mi Calm Calm - N/A   Clear
10:55 AM 62.2 °F - 14.5 °F 16% 30.35 in 10.0 mi NE 3.5 mph - N/A   Clear
11:15 AM 64.2 °F - 13.3 °F 14% 30.35 in 10.0 mi East 4.6 mph - N/A   Clear
11:35 AM 64.2 °F - 14.2 °F 14% 30.34 in 10.0 mi Calm Calm - N/A   Clear
11:55 AM 64.2 °F - 15.6 °F 15% 30.34 in 10.0 mi Calm Calm - N/A   Clear
12:15 PM 65.8 °F - 16.5 °F 15% 30.33 in 10.0 mi Calm Calm - N/A   Clear
12:35 PM 67.3 °F - 17.2 °F 15% 30.33 in 10.0 mi Calm Calm - N/A   Clear
12:55 PM 68.5 °F - 16.9 °F 14% 30.32 in 10.0 mi NE 4.6 mph - N/A   Clear
1:15 PM 69.4 °F - 18.0 °F 14% 30.32 in 10.0 mi Calm Calm - N/A   Clear
1:35 PM 70.0 °F - 17.8 °F 14% 30.31 in 10.0 mi NE 4.6 mph - N/A   Clear
1:55 PM 70.5 °F - 17.6 °F 13% 30.29 in 10.0 mi Calm Calm - N/A   Clear
2:15 PM 72.9 °F - 19.6 °F 13% 30.28 in 10.0 mi ESE 4.6 mph - N/A   Clear
2:35 PM 72.5 °F - 18.5 °F 13% 30.26 in 10.0 mi North 3.5 mph - N/A   Clear
2:55 PM 74.1 °F - 19.9 °F 13% 30.25 in 10.0 mi East 6.9 mph - N/A   Clear
3:15 PM 75.4 °F - 19.6 °F 12% 30.24 in 10.0 mi Calm Calm - N/A   Clear
3:35 PM 76.3 °F - 21.0 °F 13% 30.23 in 10.0 mi ENE 5.8 mph - N/A   Scattered Clouds
3:55 PM 75.6 °F - 20.3 °F 13% 30.23 in 10.0 mi NE 3.5 mph - N/A   Clear
4:15 PM 76.3 °F - 20.7 °F 12% 30.22 in 10.0 mi East 5.8 mph - N/A   Clear
4:35 PM 75.4 °F - 20.3 °F 13% 30.21 in 10.0 mi Calm Calm - N/A   Clear
4:55 PM 76.8 °F - 18.0 °F 11% 30.21 in 10.0 mi Calm Calm - N/A   Clear
5:15 PM 76.6 °F - 16.7 °F 10% 30.20 in 10.0 mi SSW 5.8 mph - N/A   Clear
5:35 PM 76.5 °F - 16.7 °F 11% 30.20 in 10.0 mi SW 5.8 mph - N/A   Clear
5:55 PM 76.1 °F - 16.2 °F 10% 30.20 in 10.0 mi WSW 3.5 mph - N/A   Clear
6:15 PM 75.6 °F - 16.9 °F 11% 30.20 in 10.0 mi SW 5.8 mph - N/A   Clear
6:35 PM 74.5 °F - 18.0 °F 12% 30.20 in 10.0 mi WSW 4.6 mph - N/A   Clear
6:55 PM 72.3 °F - 21.4 °F 15% 30.19 in 10.0 mi WSW 4.6 mph - N/A   Clear
7:15 PM 67.6 °F - 22.8 °F 18% 30.19 in 10.0 mi WSW 5.8 mph - N/A   Clear
7:35 PM 62.1 °F - 22.1 °F 22% 30.19 in 10.0 mi WSW 6.9 mph - N/A   Clear
7:55 PM 61.2 °F - 23.0 °F 23% 30.19 in 10.0 mi SW 8.1 mph - N/A   Clear
8:15 PM 57.7 °F - 23.0 °F 26% 30.20 in 10.0 mi Calm Calm - N/A   Clear
8:35 PM 57.2 °F - 23.4 °F 27% 30.20 in 10.0 mi Calm Calm - N/A   Clear
8:55 PM 56.8 °F - 22.5 °F 26% 30.20 in 10.0 mi Calm Calm - N/A   Clear
9:15 PM 60.3 °F - 21.2 °F 22% 30.20 in 10.0 mi SW 4.6 mph - N/A   Clear
9:35 PM 57.6 °F - 21.2 °F 24% 30.20 in 10.0 mi West 8.1 mph - N/A   Clear
9:55 PM 53.8 °F - 21.9 °F 29% 30.20 in 10.0 mi SW 5.8 mph - N/A   Clear
10:15 PM 50.5 °F - 23.5 °F 35% 30.20 in 10.0 mi SW 5.8 mph - N/A   Clear
10:35 PM 51.8 °F - 23.0 °F 33% 30.20 in 10.0 mi SW 5.8 mph - N/A   Clear
10:55 PM 51.1 °F - 22.5 °F 33% 30.20 in 10.0 mi WSW 6.9 mph - N/A   Clear
11:15 PM 51.4 °F - 22.6 °F 32% 30.19 in 10.0 mi SW 8.1 mph - N/A   Clear
11:35 PM 52.3 °F - 22.3 °F 31% 30.19 in 10.0 mi SW 5.8 mph - N/A   Clear
11:55 PM 51.3 °F - 22.8 °F 33% 30.19 in 10.0 mi South 5.8 mph - N/A   Clear